Location: Caltech
(34.1382°N, 118.1253°W)
Time: 20:38:08
(UTC-07:00)

AO-7 - Visible Passes

Search period start: 31 August 2016 00:00
Search period end: 10 September 2016 00:00
Orbit: 1440 x 1459 km, 101.6° (Epoch: 31 August)

Date Brightness Start Highest point End Pass type
(mag) Time Alt. Az. Time Alt. Az. Time Alt. Az.
31 Aug ? 02:51:07 10° ENE 02:53:32 11° E 02:55:56 10° ESE visible
31 Aug ? 04:38:58 10° NNE 04:47:18 79° ESE 04:55:35 10° SSW visible
01 Sep ? 03:39:58 10° NE 03:47:09 32° E 03:54:15 10° SSE visible
01 Sep ? 05:32:09 10° N 05:40:02 50° WNW 05:47:53 10° SW visible
02 Sep ? 04:32:02 10° NNE 04:40:20 72° ESE 04:48:35 10° S visible
03 Sep ? 03:33:15 10° NE 03:40:08 28° E 03:46:55 10° SSE visible
03 Sep ? 05:25:07 10° N 05:33:07 55° WNW 05:41:06 10° SW visible
04 Sep ? 04:25:07 10° NNE 04:33:22 65° ESE 04:41:33 10° S visible
05 Sep ? 03:26:34 10° NE 03:33:06 25° E 03:39:33 10° SSE visible
05 Sep ? 05:18:05 10° N 05:26:12 61° WNW 05:34:17 10° SW visible
06 Sep ? 04:18:14 10° NNE 04:26:23 58° ESE 04:34:29 10° S visible
07 Sep ? 03:19:56 10° NE 03:26:03 22° E 03:32:06 10° SE visible
07 Sep ? 05:11:05 10° N 05:19:17 67° WNW 05:27:27 10° SSW visible
08 Sep ? 04:11:21 10° NNE 04:19:24 53° ESE 04:27:24 10° S visible
08 Sep ? 06:04:46 10° N 06:11:44 31° WNW 06:18:42 10° WSW visible
09 Sep ? 03:13:23 10° NE 03:19:01 20° E 03:24:35 10° SE visible
09 Sep ? 05:04:04 10° NNE 05:12:21 74° WNW 05:20:35 10° SSW visible
